Weather in Voyegurt

Russia / Udmurt Republic     57°52′58″N   53°04′47″E
temp.,
°C
wind,
m/s
gust,
m/s
humid.,
%
clouds,
%
prec.,
mm/h
press.,
hPa
HPBL,
m
6 may, thu
thu601:00+3w6128556 0.1 1005850
04:00+2w6118387 0.1 1008864
07:00+3w6107961 0.1 1010879
10:00+7wnw7105690 0.1 10121551
13:00+10w694738 0.0 10131667
16:00+11w58461 0.0 10141557
19:00+10wsw37625 0.0 1014315
22:00+7ssw35817 0.0 101576
7 may, fri
fri701:00+7s41282100 0.0 1015235
04:00+7ssw41191100 0.0 1015243
07:00+11ssw5137998 0.0 1015396
10:00+15ssw7105869 0.0 10151140
13:00+18ssw8104386 0.0 10152426
16:00+18ssw61046100 0.0 10142651
19:00+15ssw51059100 0.0 1014420
22:00+12s51267100 0.2 1015348
8 may, sat
sat801:00+10sw41075100 0.1 1015343
04:00+9nw3688100 0.1 1017385
07:00+9n36736 0.0 1019472
10:00+13ne33475 0.0 10191051
13:00+16e22340 0.0 10181643
16:00+18s334337 0.0 10181765
19:00+15sse35615 0.0 1017173
22:00+11se397871 0.0 1017177
9 may, sun
sun901:00+10se3685100 0.0 1017110
04:00+9se388725 0.0 1017146
07:00+13sse5117225 0.0 1017375
10:00+18sse794713 0.0 10161360
13:00+20sse6838100 0.0 10162150
16:00+21s5738100 0.0 10162399
19:00+18sse4853100 0.0 1016229
22:00+14sse31064100 0.0 1017205
10 may, mon
mon1001:00+13ssw31068100 0.0 1017285
04:00+10w3785100 0.1 1020372
07:00+10nw3483100 0.6 1023518
10:00+9nnw5683100 0.6 1025550
13:00+10nnw3473100 0.0 1027819
16:00+11nnw456080 0.0 10271118
19:00+11n35590 0.0 1028509
22:00+7wnw00725 0.0 102910